Regional Weather Roundup
Issued by NWS

Home | Current Version | Previous Version | Graphics & Text | Print | Product List | Glossary On
Versions: 1 2 3 4 5 6 7 8 9 10 11 12 13 14 15 16 17 18 19 20 21 22 23 24 25 26 27 28 29 30 31 32 33 34 35 36 37 38 39 40 41 42 43 44 45 46 47 48 49 50
000
ASUS43 KDTX 301910
RWRMI
MICHIGAN HOURLY REGIONAL WEATHER ROUNDUP
NATIONAL WEATHER SERVICE DETROIT/PONTIAC MI
300 PM EDT THU OCT 30 2014

NOTE: "FAIR" INDICATES FEW OR NO CLOUDS BELOW 12,000 FEET WITH NO
SIGNIFICANT WEATHER AND/OR OBSTRUCTION TO VISIBILITY.

MIZ047>049-052>055-059>063-066>070-074>076-081>083-302000-
SOUTHEAST LOWER MICHIGAN

CITY           SKY/WX    TMP DP  RH WIND       PRES   REMARKS
ADRIAN         CLOUDY    48  34  58 W3        30.10F
ALMA           CLOUDY    50  37  61 SW7       30.06F
ANN ARBOR      CLOUDY    49  33  54 MISG      30.08F
BAD AXE        CLOUDY    45  37  72 W7        30.07F
DETROIT CITY   CLOUDY    51  33  50 NW7       30.09F
DETROIT        PTSUNNY   49  33  54 W6        30.09F
FLINT          CLOUDY    50  36  58 SW7       30.08F
GROSSE ILE     PTSUNNY   50  34  53 CALM      30.08F
HILLSDALE      CLOUDY    48  36  64 S3        30.07F
HOWELL         CLOUDY    47  34  60 W6        30.07F

CITY           SKY/WX    TMP DP  RH WIND       PRES   REMARKS
JACKSON        CLOUDY    48  35  60 W5        30.07F
LAMBERTVILLE   PTSUNNY   50  34  53 CALM      30.10S
LANSING        CLOUDY    48  36  63 SW7       30.07F
LAPEER         NOT AVBL
MASON          CLOUDY    47  36  64 SW3       30.07F
MONROE         PTSUNNY   50  36  57 NW3       30.08F
MT. CLEMENS    CLOUDY    49  34  56 NW3       30.06F
PONTIAC        PTSUNNY   48  32  53 W10       30.06F
PORT HOPE        N/A     45  37  73 W6        30.05F
PORT HURON     CLOUDY    48  34  57 CALM      30.07F
TRI CITIES     CLOUDY    50  36  58 SW10      30.07F
YPSILANTI      CLOUDY    53  33  46 W7        30.09F
$$
MIZ043>046-050>051-056>058-064>065-071>073-077>080-302000-
SOUTHWEST LOWER MICHIGAN

CITY           SKY/WX    TMP DP  RH WIND       PRES   REMARKS
BATTLE CREEK   CLOUDY    49  35  58 SW12      30.07F
BENTON HARBOR  PTSUNNY   50  35  56 W14       30.08F
BIG RAPIDS     CLOUDY    47  41  77 SW8       30.03F
COLDWATER      CLOUDY    49  37  61 SW7       30.08F
HOLLAND        CLOUDY    51  38  60 SW16      30.08F
GRAND RAPIDS   CLOUDY    49  38  65 SW12      30.06F
KALAMAZOO      CLOUDY    50  35  56 SW12      30.08F
MARSHALL       CLOUDY    47  36  63 MISG      30.07F
MUSKEGON       CLOUDY    50  36  58 SW14G21   30.07F
$$
MIZ016>042-302000-
NORTHERN LOWER MICHIGAN

CITY           SKY/WX    TMP DP  RH WIND       PRES   REMARKS
ALPENA         LGT RAIN  43  36  76 S5        30.04F
BEAVER ISLAND  CLOUDY    44  41  90 CALM      30.00F
BELLAIRE       CLOUDY    46  38  74 SW6       30.02F
CADILLAC       LGT RAIN  44  38  80 SW7       30.02F
CHARLEVOIX     DRIZZLE   44  40  86 W7        30.04F
FRANKFORT      CLOUDY    46  38  74 W8        30.04F
GAYLORD        CLOUDY    42  39  89 SW7       30.00F
GRAYLING       LGT RAIN  43  38  83 SW6       30.02F
HARBOR SPRINGS RAIN      43  41  92 SW8       30.01F
HOUGHTON LAKE  CLOUDY    45  38  76 SW6       30.03F
MANISTEE       CLOUDY    46  34  61 W8G16     30.05F
OSCODA         CLOUDY    46  37  72 SW6       30.04F
PELLSTON       LGT RAIN  44  40  85 CALM      30.02F FOG
TRAVERSE CITY  CLOUDY    47  37  68 SW6       30.02F
$$
MIZ007>008-015-302000-
EASTERN UPPER MICHIGAN

CITY           SKY/WX    TMP DP  RH WIND       PRES   REMARKS
KINROSS        CLOUDY    43  39  87 S3        30.00F
MACKINAC ISLAN LGT RAIN  43  39  85 S3        30.00F
NEWBERRY       CLOUDY    43  35  74 SW9G16    29.98F
S. S. MARIE    CLOUDY    45  36  70 SW6       29.99F
$$
MIZ004>006-011>014-085-302000-
CENTRAL UPPER MICHIGAN

CITY           SKY/WX    TMP DP  RH WIND       PRES   REMARKS
MANISTIQUE     CLOUDY    43  37  79 CALM      29.99F
ESCANABA       CLOUDY    45  34  65 W10       29.99F
MENOMINEE      CLOUDY    45  32  61 W7        30.01F
SAWYER-GWINN   CLOUDY    41  34  75 W8        29.98F
$$
MIZ001>003-009>011-084-302000-
WESTERN UPPER MICHIGAN

CITY           SKY/WX    TMP DP  RH WIND       PRES   REMARKS
IRON MOUNTAIN  CLOUDY    43  32  65 W7        29.99F
HOUGHTON       LGT RAIN  40  36  86 W10       29.98F
COPPER HARBOR    N/A     41  38  89 N8        29.99F
IRONWOOD       CLOUDY    39  34  81 W10       30.02S
$$

ABBREVIATIONS USED IN REMARKS
   TC - TEMPERATURE IN CELSIUS
  WCI - WIND CHILL INDEX
   HX - HEAT INDEX
  VSB - VISIBILITY




USA.gov is the U.S. government's official web portal to all federal, state and local government web resources and services.